Year,Month,Day,Hour,Minute,Value (Times are PST for temperature in C)
2007,05,30,00,00,12.60
2007,05,30,00,01,12.60
2007,05,30,00,02,12.50
2007,05,30,00,03,12.50
2007,05,30,00,04,12.40
2007,05,30,00,05,12.40
2007,05,30,00,06,12.40
2007,05,30,00,07,12.40
2007,05,30,00,08,12.40
2007,05,30,00,09,12.40
2007,05,30,00,10,12.40
2007,05,30,00,11,12.40
2007,05,30,00,12,12.40
2007,05,30,00,13,12.40
2007,05,30,00,14,12.40
2007,05,30,00,15,12.40
2007,05,30,00,16,12.40
2007,05,30,00,17,12.40
2007,05,30,00,18,12.30
2007,05,30,00,19,12.30
2007,05,30,00,20,12.30
2007,05,30,00,21,12.30
2007,05,30,00,22,12.20
2007,05,30,00,23,12.20
2007,05,30,00,24,12.20
2007,05,30,00,25,12.10
2007,05,30,00,26,12.10
2007,05,30,00,27,12.10
2007,05,30,00,28,12.10
2007,05,30,00,29,12.10
2007,05,30,00,30,12.00
2007,05,30,00,31,12.00
2007,05,30,00,32,11.90
2007,05,30,00,33,11.90
2007,05,30,00,34,11.90
2007,05,30,00,35,11.90
2007,05,30,00,36,11.80
2007,05,30,00,37,11.80
2007,05,30,00,38,11.80
2007,05,30,00,39,11.80
2007,05,30,00,40,11.80
2007,05,30,00,41,11.70
2007,05,30,00,42,11.70
2007,05,30,00,43,11.70
2007,05,30,00,44,11.70
2007,05,30,00,45,11.70
2007,05,30,00,46,11.70
2007,05,30,00,47,11.70
2007,05,30,00,48,11.70
2007,05,30,00,49,11.70
2007,05,30,00,50,11.70
2007,05,30,00,51,11.70
2007,05,30,00,52,11.70
2007,05,30,00,53,11.70
2007,05,30,00,54,11.70
2007,05,30,00,55,11.60
2007,05,30,00,56,11.60
2007,05,30,00,57,11.60
2007,05,30,00,58,11.60
2007,05,30,00,59,11.60
2007,05,30,01,00,11.60
2007,05,30,01,01,11.50
2007,05,30,01,02,11.50
2007,05,30,01,03,11.50
2007,05,30,01,04,11.50
2007,05,30,01,05,11.40
2007,05,30,01,06,11.40
2007,05,30,01,07,11.40
2007,05,30,01,08,11.40
2007,05,30,01,09,11.30
2007,05,30,01,10,11.30
2007,05,30,01,11,11.30
2007,05,30,01,12,11.30
2007,05,30,01,13,11.20
2007,05,30,01,14,11.20
2007,05,30,01,15,11.20
2007,05,30,01,16,11.20
2007,05,30,01,17,11.20
2007,05,30,01,18,11.20
2007,05,30,01,19,11.20
2007,05,30,01,20,11.20
2007,05,30,01,21,11.30
2007,05,30,01,22,11.30
2007,05,30,01,23,11.30
2007,05,30,01,24,11.30
2007,05,30,01,25,11.40
2007,05,30,01,26,11.40
2007,05,30,01,27,11.40
2007,05,30,01,28,11.50
2007,05,30,01,29,11.50
2007,05,30,01,30,11.50
2007,05,30,01,31,11.50
2007,05,30,01,32,11.50
2007,05,30,01,33,11.50
2007,05,30,01,34,11.40
2007,05,30,01,35,11.40
2007,05,30,01,36,11.40
2007,05,30,01,37,11.40
2007,05,30,01,38,11.40
2007,05,30,01,39,11.40
2007,05,30,01,40,11.40
2007,05,30,01,41,11.40
2007,05,30,01,42,11.40
2007,05,30,01,43,11.40
2007,05,30,01,44,11.40
2007,05,30,01,45,11.40
2007,05,30,01,46,11.40
2007,05,30,01,47,11.40
2007,05,30,01,48,11.30
2007,05,30,01,49,11.30
2007,05,30,01,50,11.30
2007,05,30,01,51,11.30
2007,05,30,01,52,11.30
2007,05,30,01,53,11.30
2007,05,30,01,54,11.30
2007,05,30,01,55,11.30
2007,05,30,01,56,11.30
2007,05,30,01,57,11.30
2007,05,30,01,58,11.30
2007,05,30,01,59,11.30
2007,05,30,02,00,11.30
2007,05,30,02,01,11.30
2007,05,30,02,02,11.40
2007,05,30,02,03,11.40
2007,05,30,02,04,11.40
2007,05,30,02,05,11.40
2007,05,30,02,06,11.40
2007,05,30,02,07,11.40
2007,05,30,02,08,11.40
2007,05,30,02,09,11.40
2007,05,30,02,10,11.40
2007,05,30,02,11,11.40
2007,05,30,02,12,11.50
2007,05,30,02,13,11.60
2007,05,30,02,14,11.60
2007,05,30,02,15,11.70
2007,05,30,02,16,11.70
2007,05,30,02,17,11.80
2007,05,30,02,18,11.80
2007,05,30,02,19,11.80
2007,05,30,02,20,11.80
2007,05,30,02,21,11.80
2007,05,30,02,22,11.80
2007,05,30,02,23,11.80
2007,05,30,02,24,11.80
2007,05,30,02,25,11.80
2007,05,30,02,26,11.80
2007,05,30,02,27,11.80
2007,05,30,02,28,11.80
2007,05,30,02,29,11.70
2007,05,30,02,30,11.70
2007,05,30,02,31,11.60
2007,05,30,02,32,11.60
2007,05,30,02,33,11.60
2007,05,30,02,34,11.60
2007,05,30,02,35,11.50
2007,05,30,02,36,11.50
2007,05,30,02,37,11.50
2007,05,30,02,38,11.40
2007,05,30,02,39,11.40
2007,05,30,02,40,11.40
2007,05,30,02,41,11.40
2007,05,30,02,42,11.40
2007,05,30,02,43,11.30
2007,05,30,02,44,11.30
2007,05,30,02,45,11.30
2007,05,30,02,46,11.30
2007,05,30,02,47,11.30
2007,05,30,02,48,11.30
2007,05,30,02,49,11.30
2007,05,30,02,50,11.30
2007,05,30,02,51,11.30
2007,05,30,02,52,11.30
2007,05,30,02,53,11.30
2007,05,30,02,54,11.30
2007,05,30,02,55,11.30
2007,05,30,02,56,11.30
2007,05,30,02,57,11.30
2007,05,30,02,58,11.30
2007,05,30,02,59,11.30
2007,05,30,03,00,11.30
2007,05,30,03,01,11.30
2007,05,30,03,02,11.30
2007,05,30,03,03,11.30
2007,05,30,03,04,11.30
2007,05,30,03,05,11.30
2007,05,30,03,06,11.30
2007,05,30,03,07,11.30
2007,05,30,03,08,11.20
2007,05,30,03,09,11.30
2007,05,30,03,10,11.30
2007,05,30,03,11,11.30
2007,05,30,03,12,11.20
2007,05,30,03,13,11.20
2007,05,30,03,14,11.20
2007,05,30,03,15,11.20
2007,05,30,03,16,11.20
2007,05,30,03,17,11.20
2007,05,30,03,18,11.10
2007,05,30,03,19,11.10
2007,05,30,03,20,11.10
2007,05,30,03,21,11.10
2007,05,30,03,22,11.00
2007,05,30,03,23,11.00
2007,05,30,03,24,11.00
2007,05,30,03,25,11.00
2007,05,30,03,26,11.10
2007,05,30,03,27,11.10
2007,05,30,03,28,11.10
2007,05,30,03,29,11.10
2007,05,30,03,30,11.10
2007,05,30,03,31,11.20
2007,05,30,03,32,11.20
2007,05,30,03,33,11.20
2007,05,30,03,34,11.20
2007,05,30,03,35,11.30
2007,05,30,03,36,11.30
2007,05,30,03,37,11.30
2007,05,30,03,38,11.30
2007,05,30,03,39,11.30
2007,05,30,03,40,11.30
2007,05,30,03,41,11.30
2007,05,30,03,42,11.30
2007,05,30,03,43,11.30
2007,05,30,03,44,11.30
2007,05,30,03,45,11.30
2007,05,30,03,46,11.30
2007,05,30,03,47,11.30
2007,05,30,03,48,11.30
2007,05,30,03,49,11.30
2007,05,30,03,50,11.20
2007,05,30,03,51,11.20
2007,05,30,03,52,11.20
2007,05,30,03,53,11.20
2007,05,30,03,54,11.10
2007,05,30,03,55,11.10
2007,05,30,03,56,11.10
2007,05,30,03,57,11.00
2007,05,30,03,58,11.00
2007,05,30,03,59,11.00
2007,05,30,04,00,11.00
2007,05,30,04,01,11.00
2007,05,30,04,02,11.00
2007,05,30,04,03,11.00
2007,05,30,04,04,11.00
2007,05,30,04,05,11.00
2007,05,30,04,06,11.00
2007,05,30,04,07,11.00
2007,05,30,04,08,11.00
2007,05,30,04,09,11.00
2007,05,30,04,10,11.00
2007,05,30,04,11,11.00
2007,05,30,04,12,11.00
2007,05,30,04,13,11.00
2007,05,30,04,14,11.00
2007,05,30,04,15,11.00
2007,05,30,04,16,11.00
2007,05,30,04,17,10.90
2007,05,30,04,18,10.90
2007,05,30,04,19,10.90
2007,05,30,04,20,10.90
2007,05,30,04,21,10.90
2007,05,30,04,22,10.90
2007,05,30,04,23,10.90
2007,05,30,04,24,10.80
2007,05,30,04,25,10.80
2007,05,30,04,26,10.80
2007,05,30,04,27,10.80
2007,05,30,04,28,10.80
2007,05,30,04,29,10.80
2007,05,30,04,30,10.80
2007,05,30,04,31,10.80
2007,05,30,04,32,10.80
2007,05,30,04,33,10.70
2007,05,30,04,34,10.70
2007,05,30,04,35,10.70
2007,05,30,04,36,10.70
2007,05,30,04,37,10.70
2007,05,30,04,38,10.70
2007,05,30,04,39,10.70
2007,05,30,04,40,10.70
2007,05,30,04,41,10.70
2007,05,30,04,42,10.70
2007,05,30,04,43,10.70
2007,05,30,04,44,10.70
2007,05,30,04,45,10.70
2007,05,30,04,46,10.70
2007,05,30,04,47,10.70
2007,05,30,04,48,10.70
2007,05,30,04,49,10.70
2007,05,30,04,50,10.70
2007,05,30,04,51,10.70
2007,05,30,04,52,10.70
2007,05,30,04,53,10.70
2007,05,30,04,54,10.60
2007,05,30,04,55,10.60
2007,05,30,04,56,10.60
2007,05,30,04,57,10.60
2007,05,30,04,58,10.60
2007,05,30,04,59,10.60
2007,05,30,05,00,10.60
2007,05,30,05,01,10.60
2007,05,30,05,02,10.60
2007,05,30,05,03,10.60
2007,05,30,05,04,10.60
2007,05,30,05,05,10.60
2007,05,30,05,06,10.60
2007,05,30,05,07,10.60
2007,05,30,05,08,10.60
2007,05,30,05,09,10.60
2007,05,30,05,10,10.60
2007,05,30,05,11,10.60
2007,05,30,05,12,10.70
2007,05,30,05,13,10.70
2007,05,30,05,14,10.70
2007,05,30,05,15,10.70
2007,05,30,05,16,10.70
2007,05,30,05,17,10.70
2007,05,30,05,18,10.70
2007,05,30,05,19,10.70
2007,05,30,05,20,10.70
2007,05,30,05,21,10.70
2007,05,30,05,22,10.70
2007,05,30,05,23,10.70
2007,05,30,05,24,10.70
2007,05,30,05,25,10.70
2007,05,30,05,26,10.70
2007,05,30,05,27,10.70
2007,05,30,05,28,10.70
2007,05,30,05,29,10.60
2007,05,30,05,30,10.60
2007,05,30,05,31,10.60
2007,05,30,05,32,10.60
2007,05,30,05,33,10.60
2007,05,30,05,34,10.50
2007,05,30,05,35,10.50
2007,05,30,05,36,10.50
2007,05,30,05,37,10.40
2007,05,30,05,38,10.40
2007,05,30,05,39,10.40
2007,05,30,05,40,10.40
2007,05,30,05,41,10.40
2007,05,30,05,42,10.40
2007,05,30,05,43,10.40
2007,05,30,05,44,10.40
2007,05,30,05,45,10.40
2007,05,30,05,46,10.40
2007,05,30,05,47,10.40
2007,05,30,05,48,10.40
2007,05,30,05,49,10.40
2007,05,30,05,50,10.40
2007,05,30,05,51,10.50
2007,05,30,05,52,10.50
2007,05,30,05,53,10.50
2007,05,30,05,54,10.50
2007,05,30,05,55,10.60
2007,05,30,05,56,10.60
2007,05,30,05,57,10.60
2007,05,30,05,58,10.60
2007,05,30,05,59,10.70
2007,05,30,06,00,10.70
2007,05,30,06,01,10.70
2007,05,30,06,02,10.70
2007,05,30,06,03,10.80
2007,05,30,06,04,10.80
2007,05,30,06,05,10.80
2007,05,30,06,06,10.80
2007,05,30,06,07,10.80
2007,05,30,06,08,10.80
2007,05,30,06,09,10.90
2007,05,30,06,10,10.90
2007,05,30,06,11,10.90
2007,05,30,06,12,10.90
2007,05,30,06,13,10.90
2007,05,30,06,14,11.00
2007,05,30,06,15,11.00
2007,05,30,06,16,11.00
2007,05,30,06,17,11.10
2007,05,30,06,18,11.10
2007,05,30,06,19,11.10
2007,05,30,06,20,11.10
2007,05,30,06,21,11.10
2007,05,30,06,22,11.10
2007,05,30,06,23,11.10
2007,05,30,06,24,11.20
2007,05,30,06,25,11.20
2007,05,30,06,26,11.20
2007,05,30,06,27,11.20
2007,05,30,06,28,11.20
2007,05,30,06,29,11.20
2007,05,30,06,30,11.30
2007,05,30,06,31,11.30
2007,05,30,06,32,11.30
2007,05,30,06,33,11.30
2007,05,30,06,34,11.40
2007,05,30,06,35,11.40
2007,05,30,06,36,11.50
2007,05,30,06,37,11.50
2007,05,30,06,38,11.60
2007,05,30,06,39,11.60
2007,05,30,06,40,11.60
2007,05,30,06,41,11.60
2007,05,30,06,42,11.60
2007,05,30,06,43,11.70
2007,05,30,06,44,11.70
2007,05,30,06,45,11.70
2007,05,30,06,46,11.70
2007,05,30,06,47,11.70
2007,05,30,06,48,11.70
2007,05,30,06,49,11.70
2007,05,30,06,50,11.70
2007,05,30,06,51,11.70
2007,05,30,06,52,11.80
2007,05,30,06,53,11.80
2007,05,30,06,54,11.80
2007,05,30,06,55,11.80
2007,05,30,06,56,11.80
2007,05,30,06,57,11.80
2007,05,30,06,58,11.90
2007,05,30,06,59,11.90
2007,05,30,07,00,11.90
2007,05,30,07,01,11.80
2007,05,30,07,02,11.80
2007,05,30,07,03,11.80
2007,05,30,07,04,11.80
2007,05,30,07,05,11.90
2007,05,30,07,06,11.90
2007,05,30,07,07,11.90
2007,05,30,07,08,11.90
2007,05,30,07,09,12.00
2007,05,30,07,10,12.00
2007,05,30,07,11,12.10
2007,05,30,07,12,12.10
2007,05,30,07,13,12.10
2007,05,30,07,14,12.20
2007,05,30,07,15,12.20
2007,05,30,07,16,12.20
2007,05,30,07,17,12.30
2007,05,30,07,18,12.30
2007,05,30,07,19,12.40
2007,05,30,07,20,12.40
2007,05,30,07,21,12.40
2007,05,30,07,22,12.40
2007,05,30,07,23,12.50
2007,05,30,07,24,12.50
2007,05,30,07,25,12.50
2007,05,30,07,26,12.50
2007,05,30,07,27,12.60
2007,05,30,07,28,12.60
2007,05,30,07,29,12.60
2007,05,30,07,30,12.60
2007,05,30,07,31,12.60
2007,05,30,07,32,12.70
2007,05,30,07,33,12.70
2007,05,30,07,34,12.70
2007,05,30,07,35,12.70
2007,05,30,07,36,12.70
2007,05,30,07,37,12.70
2007,05,30,07,38,12.80
2007,05,30,07,39,12.80
2007,05,30,07,40,12.90
2007,05,30,07,41,12.90
2007,05,30,07,42,12.90
2007,05,30,07,43,13.00
2007,05,30,07,44,13.00
2007,05,30,07,45,13.10
2007,05,30,07,46,13.10
2007,05,30,07,47,13.20
2007,05,30,07,48,13.20
2007,05,30,07,49,13.20
2007,05,30,07,50,13.30
2007,05,30,07,51,13.30
2007,05,30,07,52,13.40
2007,05,30,07,53,13.40
2007,05,30,07,54,13.50
2007,05,30,07,55,13.60
2007,05,30,07,56,13.60
2007,05,30,07,57,13.70
2007,05,30,07,58,13.70
2007,05,30,07,59,13.90
2007,05,30,08,00,14.00
2007,05,30,08,01,14.10
2007,05,30,08,02,14.20
2007,05,30,08,03,14.30
2007,05,30,08,04,14.30
2007,05,30,08,05,14.40
2007,05,30,08,06,14.40
2007,05,30,08,07,14.40
2007,05,30,08,08,14.40
2007,05,30,08,09,14.50
2007,05,30,08,10,14.50
2007,05,30,08,11,14.60
2007,05,30,08,12,14.60
2007,05,30,08,13,14.70
2007,05,30,08,14,14.70
2007,05,30,08,15,14.80
2007,05,30,08,16,14.90
2007,05,30,08,17,14.90
2007,05,30,08,18,14.90
2007,05,30,08,19,15.00
2007,05,30,08,20,15.00
2007,05,30,08,21,15.00
2007,05,30,08,22,15.00
2007,05,30,08,23,15.00
2007,05,30,08,24,15.00
2007,05,30,08,25,15.00
2007,05,30,08,26,15.10
2007,05,30,08,27,15.20
2007,05,30,08,28,15.20
2007,05,30,08,29,15.20
2007,05,30,08,30,15.20
2007,05,30,08,31,15.20
2007,05,30,08,32,15.10
2007,05,30,08,33,15.10
2007,05,30,08,34,15.10
2007,05,30,08,35,15.10
2007,05,30,08,36,15.10
2007,05,30,08,37,15.00
2007,05,30,08,38,15.10
2007,05,30,08,39,15.10
2007,05,30,08,40,15.20
2007,05,30,08,41,15.20
2007,05,30,08,42,15.30
2007,05,30,08,43,15.40
2007,05,30,08,44,15.40
2007,05,30,08,45,15.50
2007,05,30,08,46,15.50
2007,05,30,08,47,15.50
2007,05,30,08,48,15.60
2007,05,30,08,49,15.60
2007,05,30,08,50,15.60
2007,05,30,08,51,15.60
2007,05,30,08,52,15.70
2007,05,30,08,53,15.70
2007,05,30,08,54,15.80
2007,05,30,08,55,15.80
2007,05,30,08,56,15.90
2007,05,30,08,57,15.90
2007,05,30,08,58,15.90
2007,05,30,08,59,15.90
2007,05,30,09,00,16.00
2007,05,30,09,01,16.10
2007,05,30,09,02,16.20
2007,05,30,09,03,16.30
2007,05,30,09,04,16.40
2007,05,30,09,05,16.50
2007,05,30,09,06,16.60
2007,05,30,09,07,16.60
2007,05,30,09,08,16.70
2007,05,30,09,09,16.80
2007,05,30,09,10,16.90
2007,05,30,09,11,17.00
2007,05,30,09,12,17.10
2007,05,30,09,13,17.20
2007,05,30,09,14,17.30
2007,05,30,09,15,17.30
2007,05,30,09,16,17.40
2007,05,30,09,17,17.50
2007,05,30,09,18,17.60
2007,05,30,09,19,17.60
2007,05,30,09,20,17.60
2007,05,30,09,21,17.70
2007,05,30,09,22,17.70
2007,05,30,09,23,17.70
2007,05,30,09,24,17.80
2007,05,30,09,25,17.90
2007,05,30,09,26,17.90
2007,05,30,09,27,18.00
2007,05,30,09,28,18.00
2007,05,30,09,29,18.10
2007,05,30,09,30,18.10
2007,05,30,09,31,18.10
2007,05,30,09,32,18.20
2007,05,30,09,33,18.30
2007,05,30,09,34,18.30
2007,05,30,09,35,18.20
2007,05,30,09,36,18.20
2007,05,30,09,37,18.20
2007,05,30,09,38,18.20
2007,05,30,09,39,18.20
2007,05,30,09,40,18.20
2007,05,30,09,41,18.20
2007,05,30,09,42,18.30
2007,05,30,09,43,18.40
2007,05,30,09,44,18.40
2007,05,30,09,45,18.50
2007,05,30,09,46,18.50
2007,05,30,09,47,18.60
2007,05,30,09,48,18.60
2007,05,30,09,49,18.70
2007,05,30,09,50,18.70
2007,05,30,09,51,18.70
2007,05,30,09,52,18.80
2007,05,30,09,53,18.80
2007,05,30,09,54,18.80
2007,05,30,09,55,18.80
2007,05,30,09,56,18.80
2007,05,30,09,57,18.90
2007,05,30,09,58,18.90
2007,05,30,09,59,19.00
2007,05,30,10,00,19.00
2007,05,30,10,01,19.10
2007,05,30,10,02,19.20
2007,05,30,10,03,19.30
2007,05,30,10,04,19.30
2007,05,30,10,05,19.40
2007,05,30,10,06,19.50
2007,05,30,10,07,19.50
2007,05,30,10,08,19.60
2007,05,30,10,09,19.60
2007,05,30,10,10,19.70
2007,05,30,10,11,19.70
2007,05,30,10,12,19.80
2007,05,30,10,13,19.80
2007,05,30,10,14,19.90
2007,05,30,10,15,19.90
2007,05,30,10,16,20.00
2007,05,30,10,17,20.00
2007,05,30,10,18,20.10
2007,05,30,10,19,20.10
2007,05,30,10,20,20.20
2007,05,30,10,21,20.20
2007,05,30,10,22,20.30
2007,05,30,10,23,20.30
2007,05,30,10,24,20.40
2007,05,30,10,25,20.50
2007,05,30,10,26,20.70
2007,05,30,10,27,20.80
2007,05,30,10,28,20.80
2007,05,30,10,29,20.90
2007,05,30,10,30,20.90
2007,05,30,10,31,21.00
2007,05,30,10,32,21.00
2007,05,30,10,33,21.10
2007,05,30,10,34,21.10
2007,05,30,10,35,21.10
2007,05,30,10,36,21.00
2007,05,30,10,37,20.90
2007,05,30,10,38,20.80
2007,05,30,10,39,20.80
2007,05,30,10,40,20.70
2007,05,30,10,41,20.60
2007,05,30,10,42,20.50
2007,05,30,10,43,20.40
2007,05,30,10,44,20.30
2007,05,30,10,45,20.20
2007,05,30,10,46,20.20
2007,05,30,10,47,20.20
2007,05,30,10,48,20.20
2007,05,30,10,49,20.30
2007,05,30,10,50,20.40
2007,05,30,10,51,20.50
2007,05,30,10,52,20.60
2007,05,30,10,53,20.70
2007,05,30,10,54,20.90
2007,05,30,10,55,21.20
2007,05,30,10,56,21.40
2007,05,30,10,57,21.60
2007,05,30,10,58,21.80
2007,05,30,10,59,21.90
2007,05,30,11,00,22.00
2007,05,30,11,01,21.90
2007,05,30,11,02,21.80
2007,05,30,11,03,21.80
2007,05,30,11,04,21.70
2007,05,30,11,05,21.60
2007,05,30,11,06,21.60
2007,05,30,11,07,21.70
2007,05,30,11,08,21.80
2007,05,30,11,09,21.80
2007,05,30,11,10,21.80
2007,05,30,11,11,21.90
2007,05,30,11,12,22.00
2007,05,30,11,13,22.10
2007,05,30,11,14,22.20
2007,05,30,11,15,22.30
2007,05,30,11,16,22.30
2007,05,30,11,17,22.40
2007,05,30,11,18,22.40
2007,05,30,11,19,22.40
2007,05,30,11,20,22.50
2007,05,30,11,21,22.40
2007,05,30,11,22,22.30
2007,05,30,11,23,22.10
2007,05,30,11,24,21.90
2007,05,30,11,25,21.80
2007,05,30,11,26,21.70
2007,05,30,11,27,21.60
2007,05,30,11,28,21.60
2007,05,30,11,29,21.70
2007,05,30,11,30,21.80
2007,05,30,11,31,22.00
2007,05,30,11,32,22.10
2007,05,30,11,33,22.30
2007,05,30,11,34,22.20
2007,05,30,11,35,22.00
2007,05,30,11,36,21.90
2007,05,30,11,37,21.90
2007,05,30,11,38,21.90
2007,05,30,11,39,22.00
2007,05,30,11,40,22.10
2007,05,30,11,41,22.20
2007,05,30,11,42,22.20
2007,05,30,11,43,22.20
2007,05,30,11,44,22.30
2007,05,30,11,45,22.30
2007,05,30,11,46,22.40
2007,05,30,11,47,22.50
2007,05,30,11,48,22.50
2007,05,30,11,49,22.70
2007,05,30,11,50,22.80
2007,05,30,11,51,22.80
2007,05,30,11,52,22.80
2007,05,30,11,53,22.90
2007,05,30,11,54,22.90
2007,05,30,11,55,22.80
2007,05,30,11,56,22.80
2007,05,30,11,57,22.90
2007,05,30,11,58,22.90
2007,05,30,11,59,22.90
2007,05,30,12,00,22.90
2007,05,30,12,01,22.90
2007,05,30,12,02,22.90
2007,05,30,12,03,22.90
2007,05,30,12,04,22.90
2007,05,30,12,05,23.00
2007,05,30,12,06,23.20
2007,05,30,12,07,23.20
2007,05,30,12,08,23.20
2007,05,30,12,09,23.00
2007,05,30,12,10,22.90
2007,05,30,12,11,22.80
2007,05,30,12,12,22.70
2007,05,30,12,13,22.70
2007,05,30,12,14,22.80
2007,05,30,12,15,22.90
2007,05,30,12,16,22.90
2007,05,30,12,17,22.90
2007,05,30,12,18,23.00
2007,05,30,12,19,23.00
2007,05,30,12,20,22.90
2007,05,30,12,21,22.80
2007,05,30,12,22,22.70
2007,05,30,12,23,22.80
2007,05,30,12,24,22.80
2007,05,30,12,25,22.90
2007,05,30,12,26,22.90
2007,05,30,12,27,22.90
2007,05,30,12,28,23.00
2007,05,30,12,29,23.10
2007,05,30,12,30,23.30
2007,05,30,12,31,23.40
2007,05,30,12,32,23.40
2007,05,30,12,33,23.30
2007,05,30,12,34,23.20
2007,05,30,12,35,23.10
2007,05,30,12,36,23.10
2007,05,30,12,37,23.10
2007,05,30,12,38,23.20
2007,05,30,12,39,23.10
2007,05,30,12,40,23.20
2007,05,30,12,41,23.30
2007,05,30,12,42,23.50
2007,05,30,12,43,23.70
2007,05,30,12,44,23.80
2007,05,30,12,45,23.80
2007,05,30,12,46,23.70
2007,05,30,12,47,23.70
2007,05,30,12,48,23.70
2007,05,30,12,49,23.60
2007,05,30,12,50,23.50
2007,05,30,12,51,23.40
2007,05,30,12,52,23.50
2007,05,30,12,53,23.60
2007,05,30,12,54,23.60
2007,05,30,12,55,23.80
2007,05,30,12,56,23.90
2007,05,30,12,57,24.00
2007,05,30,12,58,23.90
2007,05,30,12,59,23.80
2007,05,30,13,00,23.70
2007,05,30,13,01,23.80
2007,05,30,13,02,23.80
2007,05,30,13,03,23.80
2007,05,30,13,04,23.80
2007,05,30,13,05,23.80
2007,05,30,13,06,23.70
2007,05,30,13,07,23.70
2007,05,30,13,08,23.70
2007,05,30,13,09,23.70
2007,05,30,13,10,23.80
2007,05,30,13,11,23.90
2007,05,30,13,12,23.90
2007,05,30,13,13,23.90
2007,05,30,13,14,23.90
2007,05,30,13,15,23.90
2007,05,30,13,16,23.90
2007,05,30,13,17,23.90
2007,05,30,13,18,23.90
2007,05,30,13,19,24.00
2007,05,30,13,20,24.00
2007,05,30,13,21,24.10
2007,05,30,13,22,24.10
2007,05,30,13,23,24.10
2007,05,30,13,24,24.10
2007,05,30,13,25,24.10
2007,05,30,13,26,24.10
2007,05,30,13,27,24.00
2007,05,30,13,28,23.90
2007,05,30,13,29,23.90
2007,05,30,13,30,24.00
2007,05,30,13,31,24.10
2007,05,30,13,32,24.10
2007,05,30,13,33,24.10
2007,05,30,13,34,24.10
2007,05,30,13,35,24.00
2007,05,30,13,36,23.90
2007,05,30,13,37,23.90
2007,05,30,13,38,24.00
2007,05,30,13,39,24.00
2007,05,30,13,40,24.10
2007,05,30,13,41,24.20
2007,05,30,13,42,24.20
2007,05,30,13,43,24.20
2007,05,30,13,44,24.20
2007,05,30,13,45,24.20
2007,05,30,13,46,24.20
2007,05,30,13,47,24.10
2007,05,30,13,48,24.00
2007,05,30,13,49,23.90
2007,05,30,13,50,23.90
2007,05,30,13,51,23.90
2007,05,30,13,52,23.90
2007,05,30,13,53,24.00
2007,05,30,13,54,24.10
2007,05,30,13,55,24.10
2007,05,30,13,56,24.00
2007,05,30,13,57,23.90
2007,05,30,13,58,23.90
2007,05,30,13,59,24.00
2007,05,30,14,00,24.00
2007,05,30,14,01,24.10
2007,05,30,14,02,24.00
2007,05,30,14,03,23.90
2007,05,30,14,04,24.00
2007,05,30,14,05,24.10
2007,05,30,14,06,24.30
2007,05,30,14,07,24.40
2007,05,30,14,08,24.50
2007,05,30,14,09,24.60
2007,05,30,14,10,24.60
2007,05,30,14,11,24.80
2007,05,30,14,12,24.90
2007,05,30,14,13,24.90
2007,05,30,14,14,24.90
2007,05,30,14,15,24.90
2007,05,30,14,16,24.90
2007,05,30,14,17,24.80
2007,05,30,14,18,24.80
2007,05,30,14,19,24.80
2007,05,30,14,20,24.90
2007,05,30,14,21,25.00
2007,05,30,14,22,25.00
2007,05,30,14,23,25.00
2007,05,30,14,24,24.90
2007,05,30,14,25,24.90
2007,05,30,14,26,24.80
2007,05,30,14,27,24.90
2007,05,30,14,28,25.00
2007,05,30,14,29,25.10
2007,05,30,14,30,25.10
2007,05,30,14,31,25.10
2007,05,30,14,32,25.10
2007,05,30,14,33,25.10
2007,05,30,14,34,25.10
2007,05,30,14,35,25.10
2007,05,30,14,36,25.10
2007,05,30,14,37,25.10
2007,05,30,14,38,25.20
2007,05,30,14,39,25.30
2007,05,30,14,40,25.40
2007,05,30,14,41,25.40
2007,05,30,14,42,25.50
2007,05,30,14,43,25.60
2007,05,30,14,44,25.60
2007,05,30,14,45,25.40
2007,05,30,14,46,25.30
2007,05,30,14,47,25.30
2007,05,30,14,48,25.30
2007,05,30,14,49,25.40
2007,05,30,14,50,25.50
2007,05,30,14,51,25.60
2007,05,30,14,52,25.60
2007,05,30,14,53,25.50
2007,05,30,14,54,25.50
2007,05,30,14,55,25.50
2007,05,30,14,56,25.50
2007,05,30,14,57,25.50
2007,05,30,14,58,25.60
2007,05,30,14,59,25.70
2007,05,30,15,00,25.70
2007,05,30,15,01,25.60
2007,05,30,15,02,25.60
2007,05,30,15,03,25.60
2007,05,30,15,04,25.70
2007,05,30,15,05,25.70
2007,05,30,15,06,25.80
2007,05,30,15,07,25.80
2007,05,30,15,08,25.70
2007,05,30,15,09,25.60
2007,05,30,15,10,25.60
2007,05,30,15,11,25.50
2007,05,30,15,12,25.50
2007,05,30,15,13,25.40
2007,05,30,15,14,25.50
2007,05,30,15,15,25.50
2007,05,30,15,16,25.50
2007,05,30,15,17,25.50
2007,05,30,15,18,25.40
2007,05,30,15,19,25.40
2007,05,30,15,20,25.50
2007,05,30,15,21,25.50
2007,05,30,15,22,25.60
2007,05,30,15,23,25.60
2007,05,30,15,24,25.70
2007,05,30,15,25,25.80
2007,05,30,15,26,25.80
2007,05,30,15,27,25.80
2007,05,30,15,28,25.80
2007,05,30,15,29,25.80
2007,05,30,15,30,25.90
2007,05,30,15,31,25.90
2007,05,30,15,32,25.90
2007,05,30,15,33,26.00
2007,05,30,15,34,26.00
2007,05,30,15,35,26.00
2007,05,30,15,36,25.90
2007,05,30,15,37,25.90
2007,05,30,15,38,25.90
2007,05,30,15,39,25.90
2007,05,30,15,40,25.90
2007,05,30,15,41,25.80
2007,05,30,15,42,25.80
2007,05,30,15,43,25.90
2007,05,30,15,44,25.90
2007,05,30,15,45,25.90
2007,05,30,15,46,25.90
2007,05,30,15,47,25.90
2007,05,30,15,48,25.80
2007,05,30,15,49,25.80
2007,05,30,15,50,25.80
2007,05,30,15,51,25.70
2007,05,30,15,52,25.80
2007,05,30,15,53,25.80
2007,05,30,15,54,25.80
2007,05,30,15,55,25.70
2007,05,30,15,56,25.50
2007,05,30,15,57,25.40
2007,05,30,15,58,25.30
2007,05,30,15,59,25.20
2007,05,30,16,00,25.20
2007,05,30,16,01,25.10
2007,05,30,16,02,25.20
2007,05,30,16,03,25.20
2007,05,30,16,04,25.20
2007,05,30,16,05,25.30
2007,05,30,16,06,25.30
2007,05,30,16,07,25.30
2007,05,30,16,08,25.40
2007,05,30,16,09,25.50
2007,05,30,16,10,25.60
2007,05,30,16,11,25.60
2007,05,30,16,12,25.60
2007,05,30,16,13,25.70
2007,05,30,16,14,25.70
2007,05,30,16,15,25.70
2007,05,30,16,16,25.80
2007,05,30,16,17,25.80
2007,05,30,16,18,25.90
2007,05,30,16,19,25.90
2007,05,30,16,20,25.90
2007,05,30,16,21,25.80
2007,05,30,16,22,25.80
2007,05,30,16,23,25.60
2007,05,30,16,24,25.50
2007,05,30,16,25,25.40
2007,05,30,16,26,25.30
2007,05,30,16,27,25.30
2007,05,30,16,28,25.30
2007,05,30,16,29,25.20
2007,05,30,16,30,25.20
2007,05,30,16,31,25.10
2007,05,30,16,32,25.10
2007,05,30,16,33,25.00
2007,05,30,16,34,25.10
2007,05,30,16,35,25.10
2007,05,30,16,36,25.10
2007,05,30,16,37,25.00
2007,05,30,16,38,25.00
2007,05,30,16,39,25.00
2007,05,30,16,40,25.00
2007,05,30,16,41,25.10
2007,05,30,16,42,25.10
2007,05,30,16,43,25.10
2007,05,30,16,44,25.10
2007,05,30,16,45,25.10
2007,05,30,16,46,25.10
2007,05,30,16,47,25.10
2007,05,30,16,48,25.10
2007,05,30,16,49,25.10
2007,05,30,16,50,25.10
2007,05,30,16,51,25.00
2007,05,30,16,52,25.00
2007,05,30,16,53,25.10
2007,05,30,16,54,25.10
2007,05,30,16,55,25.10
2007,05,30,16,56,25.10
2007,05,30,16,57,25.10
2007,05,30,16,58,25.10
2007,05,30,16,59,25.10
2007,05,30,17,00,25.10
2007,05,30,17,01,25.10
2007,05,30,17,02,25.10
2007,05,30,17,03,25.00
2007,05,30,17,04,24.90
2007,05,30,17,05,24.80
2007,05,30,17,06,24.80
2007,05,30,17,07,24.80
2007,05,30,17,08,24.80
2007,05,30,17,09,24.80
2007,05,30,17,10,24.80
2007,05,30,17,11,24.80
2007,05,30,17,12,24.80
2007,05,30,17,13,24.80
2007,05,30,17,14,24.80
2007,05,30,17,15,24.70
2007,05,30,17,16,24.70
2007,05,30,17,17,24.80
2007,05,30,17,18,24.80
2007,05,30,17,19,24.80